Regional Weather Roundup
Issued by NWS

Home | Current Version | Previous Version | Text Only | Print | Product List | Glossary Off
Versions: 1 2 3 4 5 6 7 8 9 10 11 12 13 14 15 16 17 18 19 20 21 22 23 24 25 26 27 28 29 30 31 32 33 34 35 36 37 38 39 40 41 42 43 44 45 46 47 48 49 50

402
ASUS43 KFSD 101202
RWRSD

WEATHER ROUNDUP FOR SOUTH DAKOTA
NATIONAL WEATHER SERVICE SIOUX FALLS SD
600 AM CST WED FEB 10 2016

NOTE: "FAIR" INDICATES FEW OR NO CLOUDS BELOW 12,000 FEET WITH NO
SIGNIFICANT WEATHER AND/OR OBSTRUCTIONS TO VISIBILITY.


SDZ001>005-009-010-012>017-101300-
NORTHWEST AND NORTH CENTRAL SOUTH DAKOTA

CITY           SKY/WX    TMP DP  RH WIND       PRES   REMARKS
BUFFALO          N/A     37  26  64 NW18      29.78F
FAITH            N/A     34  25  69 W10       29.84S WCI  26
MOBRIDGE       CLOUDY    22  18  85 SE6       29.85S WCI  14
$$

SDZ012>016-024>037-041>051-057-063-072>074-101300-
SOUTHWEST AND SOUTH CENTRAL SOUTH DAKOTA

CITY           SKY/WX    TMP DP  RH WIND       PRES   REMARKS
RAPID CTY ARPT CLOUDY    36  25  64 NW9       29.88S
PIERRE         CLOUDY    23  21  92 E3        29.87F
CUSTER         CLEAR     45  13  27 W10G25    29.97R
ELLSWORTH AFB  CLOUDY    37  24  59 NW13      29.87S
PHILIP         CLEAR     30  26  85 W12       29.87F WCI  20
PINE RIDGE     CLEAR     36  24  62 W15       29.96F
WINNER         FAIR      30  25  81 SW5       29.86F WCI  25
$$

SDZ004>011-016>023-039-040-101300-
NORTHEAST SOUTH DAKOTA

CITY           SKY/WX    TMP DP  RH WIND       PRES   REMARKS
ABERDEEN       FLURRIES  17  12  80 E12       29.97F WCI   4
WATERTOWN      LGT SNOW  12   7  80 E5        29.97F WCI   4
BROOKINGS      LGT SNOW  12   8  84 SE12      29.98F FOG     WCI  -2
SISSETON         N/A      9   6  88 SE8       30.05S WCI  -3
$$

SDZ017-020-022-023-036>040-048>070-101300-
SOUTHEAST SOUTH DAKOTA

CITY           SKY/WX    TMP DP  RH WIND       PRES   REMARKS
SIOUX FALLS    LGT SNOW  19  15  84 E12       30.00F FOG     WCI   7
HURON          CLOUDY    22  19  89 SE13      29.96S WCI  10
CHAMBERLAIN    CLOUDY    23  20  91 E5        29.90R WCI  16
MITCHELL       CLOUDY    24  17  74 SE14      29.96F WCI  12
YANKTON        CLOUDY    21  18  86 E10       29.97F WCI  10
$$

ABBREVIATIONS USED IN REMARKS
   TC - TEMPERATURE IN CELSIUS
  WCI - WIND CHILL INDEX
   HX - HEAT INDEX
  VSB - VISIBILITY





USA.gov is the U.S. government's official web portal to all federal, state and local government web resources and services.